Regional Weather Roundup
Issued by NWS

Home | Current Version | Previous Version | Text Only | Print | Product List | Glossary Off
Versions: 1 2 3 4 5 6 7 8 9 10 11 12 13 14 15 16 17 18 19 20 21 22 23 24 25 26 27 28 29 30 31 32 33 34 35 36 37 38 39 40 41 42 43 44 45 46 47 48 49 50

000
ASUS45 KCYS 020310
RWRWY

WYOMING REGIONAL WEATHER ROUNDUP
NATIONAL WEATHER SERVICE CHEYENNE WY
800 PM MST THU DEC 01 2016

NOTE:  "FAIR" INDICATES FEW OR NO CLOUDS BELOW 12,000 FEET
WITH NO SIGNIFICANT WEATHER AND/OR OBSTRUCTIONS TO VISIBILITY.

WYZ001-020400-
YELLOWSTONE NATIONAL PARK

CITY           SKY/WX    TMP DP  RH WIND       PRES   REMARKS
LK YELLOWSTONE   N/A      9   7  92 CALM      30.00R
W YELLOWSTONE  NOT AVBL

$$
WYZ002>013-054>058-071-098>099-020400-
NORTHERN WYOMING

CITY           SKY/WX    TMP DP  RH WIND       PRES   REMARKS
JACKSON        PTCLDY    14  12  92 N10       30.02R WCI   1
CODY           FAIR      26  17  68 CALM      30.01R
GREYBULL       CLOUDY    29  19  66 W3        30.01R
WORLAND        CLOUDY    28  22  78 CALM      30.00R
SHERIDAN       CLOUDY    35  21  56 NW8       30.00R WCI  29
BUFFALO        CLOUDY    33  23  66 SW5       29.99R WCI  29
GILLETTE       CLOUDY    29  23  78 W8        29.97R WCI  21
HULETT         CLOUDY    30  27  86 SW5       29.98R WCI  25
NEWCASTLE      CLOUDY    27  27 100 CALM      29.99R

$$
WYZ014>020-022>026-101>103-020400-
CENTRAL WYOMING

CITY           SKY/WX    TMP DP  RH WIND       PRES   REMARKS
BIG PINEY        N/A     13   8  81 CALM      29.99R
PINEDALE       FAIR      16  10  79 NW10      29.98R WCI   3
DUBOIS         FAIR      19   9  63 W13       29.96R WCI   7
LANDER         FAIR      21  15  78 W6        29.99R WCI  13
RIVERTON       CLOUDY    22  18  85 NW7       29.99R WCI  13
CASPER         LGT SNOW  27  24  89 CALM      29.98R FOG
DOUGLAS        CLOUDY    28  24  85 NW6       30.00R WCI  22

$$
WYZ021-027>030-104>119-020400-
SOUTHERN WYOMING

CITY           SKY/WX    TMP DP  RH WIND       PRES   REMARKS
EVANSTON       CLOUDY    18  13  80 W3        30.01R
FORT BRIDGER     N/A     18  14  82 W10       30.04R WCI   7
ROCK SPRINGS   MOCLDY    18  12  77 SW3       29.99R
DIXON          LGT SNOW  24  22  92 CALM      30.04R
RAWLINS        CLOUDY    22  17  81 SW7       29.96R WCI  13
SARATOGA       CLOUDY    23  21  93 CALM      29.98R
LARAMIE        CLOUDY    19  14  81 E6        29.94R WCI  11
CHEYENNE       CLOUDY    24  15  68 W7        29.97R WCI  16
TORRINGTON     CLOUDY    31  15  52 NW7       29.98R WCI  24
PINE BLUFFS    CLOUDY    27  18  69 W7        30.00R WCI  19

$$



USA.gov is the U.S. government's official web portal to all federal, state and local government web resources and services.